NIMIQ 2

Last updated on Sun Apr 27 2025 00:02:38 GMT+0000 (Coordinated Universal Time)

1 27632U 02062A 25115.93730954 -.00000062 00000+0 00000+0 0 9991 2 27632 8.4755 61.1762 0005890 330.8684 50.3973 1.00272191 81681
UTC large
Height (km)
Speed (km/s)
/
Latitude / Longitude
Inclination (degrees)
Orbital Period (minutes)
Azimuth
Elevation
Range (km)
Doppler Factor

Next 0 passes for location: London (51.5072 / 0.1276)

Sorry there are no passes over London.